FW8731 Weather Reports


Display with metric or nautical units.
time (UTC)temp
F
wind
direction
speed
MPH
gust
MPH
rain 1hr
in
rain 24hr
in
rain mn
in
humidity
%
barometer
mb
20260905093054 48 0 0.0 0.0 0.00 0.01 0.00 91 1017.4
20260905091617 48 0 0.0 0.0 0.00 0.01 0.00 90 1017.5
20260905090054 48 0 0.0 0.0 0.00 0.01 0.00 90 1017.4
20260905084542 48 0 0.0 0.0 0.00 0.01 0.00 90 1017.3
20260905083050 48 0 0.0 0.0 0.00 0.01 0.00 90 1017.4
20260905081551 49 0 0.0 0.0 0.00 0.01 0.00 89 1017.4
20260905080053 49 0 0.0 0.0 0.00 0.01 0.00 89 1017.3
20260905074544 49 0 0.0 0.0 0.00 0.01 0.00 88 1017.1
20260905073100 50 0 0.0 0.0 0.00 0.01 0.00 88 1017.1
20260905071551 50 0 0.0 0.0 0.00 0.01 0.00 87 1017.2
20260905070057 51 0 0.0 2.0 0.00 0.01 0.00 87 1017.1
20260905064555 51 0 0.0 0.0 0.00 0.01 0.01 86 1016.9
20260905063044 52 0 0.0 1.0 0.00 0.01 0.01 84 1016.8
20260905061617 52 0 0.0 0.0 0.00 0.01 0.01 83 1016.9
20260905060101 53 0 0.0 0.0 0.00 0.01 0.01 82 1016.8
20260905054546 54 0 0.0 1.0 0.00 0.01 0.01 80 1016.6
20260905053046 55 0 0.0 1.0 0.00 0.01 0.01 78 1016.7
20260905051550 56 0 0.0 2.0 0.00 0.01 0.01 77 1016.6
20260905050055 57 0 0.0 1.0 0.00 0.01 0.01 76 1016.6
20260905044546 58 0 0.0 1.0 0.00 0.01 0.01 75 1016.6
20260905043055 59 0 0.0 2.0 0.00 0.01 0.01 72 1016.4
20260905041600 60 186 0.0 2.0 0.00 0.01 0.01 71 1016.3
20260905040045 60 77 1.0 4.0 0.00 0.01 0.01 66 1016.0
20260905034552 60 0 0.0 4.0 0.00 0.01 0.01 68 1016.0
20260905033052 60 92 0.0 5.0 0.00 0.01 0.01 68 1015.7
20260905031550 61 0 1.0 2.0 0.00 0.01 0.01 65 1015.7
20260905030056 62 148 1.0 3.0 0.00 0.01 0.01 63 1015.5
20260905024543 62 0 1.0 6.0 0.00 0.01 0.01 63 1015.5
20260905023043 63 0 1.0 6.0 0.00 0.01 0.01 60 1015.4
20260905021552 63 298 2.0 6.0 0.00 0.01 0.01 61 1015.3
20260905020045 63 289 1.0 3.0 0.00 0.01 0.01 60 1015.2
20260905014552 64 42 0.0 5.0 0.00 0.01 0.01 62 1015.0
20260905013046 65 317 2.0 9.0 0.00 0.01 0.01 58 1015.0
20260905011546 65 211 2.0 6.0 0.00 0.01 0.01 59 1014.9
20260905010059 64 165 2.0 5.0 0.00 0.01 0.01 62 1014.9
20260905004553 64 137 0.0 5.0 0.00 0.01 0.01 62 1014.8
20260905003049 64 176 2.0 6.0 0.00 0.01 0.01 60 1014.7
20260905001603 65 180 2.0 9.0 0.00 0.01 0.01 61 1014.6
20260905000044 64 0 1.0 11.0 0.00 0.01 0.01 61 1014.7
20260904234544 64 165 3.0 11.0 0.00 0.01 0.01 57 1014.5
20260904233114 65 0 0.0 9.0 0.00 0.01 0.01 58 1014.5
20260904231554 65 248 1.0 10.0 0.00 0.01 0.01 56 1014.5
20260904230048 66 178 4.0 10.0 0.00 0.01 0.01 54 1014.3
20260904224550 66 205 4.0 14.0 0.00 0.01 0.01 55 1014.1
20260904223114 67 0 2.0 8.0 0.00 0.01 0.01 52 1014.0
20260904221551 67 267 2.0 7.0 0.00 0.01 0.01 53 1014.0
20260904220049 67 197 2.0 6.0 0.00 0.01 0.01 51 1013.8
20260904214545 67 192 2.0 7.0 0.00 0.01 0.01 50 1013.8
20260904213049 66 0 2.0 9.0 0.00 0.01 0.01 52 1013.8
20260904211546 66 283 4.0 9.0 0.00 0.01 0.01 51 1013.8
20260904204555 66 263 2.0 8.0 0.00 0.01 0.01 53 1013.9
20260904203052 67 208 2.0 9.0 0.00 0.01 0.01 50 1013.7
20260904201544 67 258 2.0 9.0 0.00 0.01 0.01 55 1013.8
20260904200054 65 234 2.0 5.0 0.00 0.01 0.01 58 1013.8
20260904194549 65 203 1.0 6.0 0.00 0.01 0.01 60 1014.0
20260904193100 63 225 1.0 4.0 0.00 0.01 0.01 64 1014.0
20260904191551 62 0 0.0 3.0 0.00 0.01 0.01 67 1014.1
20260904190051 61 180 0.0 3.0 0.00 0.01 0.01 70 1014.3
20260904184549 60 0 0.0 2.0 0.00 0.01 0.01 72 1014.3
20260904183047 59 202 1.0 4.0 0.00 0.01 0.01 74 1014.2
20260904181552 59 0 0.0 3.0 0.00 0.01 0.01 77 1014.1
20260904180053 58 0 0.0 4.0 0.00 0.01 0.01 80 1014.2
20260904174550 57 281 1.0 4.0 0.00 0.01 0.01 80 1014.2
20260904173052 56 267 0.0 2.0 0.00 0.01 0.01 83 1014.1
20260904171545 56 0 0.0 1.0 0.00 0.01 0.01 84 1014.1
20260904170050 55 0 0.0 4.0 0.00 0.01 0.01 85 1013.9
20260904164548 54 0 0.0 2.0 0.00 0.01 0.01 87 1013.8
20260904163050 53 0 0.0 2.0 0.00 0.01 0.01 89 1014.1
20260904161548 53 0 0.0 0.0 0.00 0.01 0.01 90 1014.0
20260904160054 52 76 0.0 2.0 0.00 0.01 0.01 91 1014.0
20260904154549 52 0 0.0 0.0 0.00 0.01 0.01 92 1013.8
20260904153044 51 0 0.0 0.0 0.00 0.01 0.01 93 1013.6
20260904151552 51 0 0.0 0.0 0.00 0.01 0.01 93 1013.5
20260904150053 51 0 0.0 0.0 0.00 0.01 0.01 93 1013.5
20260904144602 51 0 0.0 0.0 0.00 0.01 0.01 93 1013.3
20260904143058 50 0 0.0 0.0 0.00 0.01 0.01 93 1013.1
20260904141554 50 0 0.0 0.0 0.00 0.01 0.01 93 1013.0
20260904140045 50 0 0.0 0.0 0.00 0.01 0.01 92 1012.9
20260904134545 50 0 0.0 0.0 0.00 0.01 0.01 92 1012.7
20260904133101 50 0 0.0 0.0 0.00 0.01 0.01 92 1012.5
20260904131550 50 0 0.0 0.0 0.00 0.01 0.01 92 1012.4
20260904130048 50 0 0.0 0.0 0.00 0.01 0.01 92 1012.4
20260904124603 50 0 0.0 0.0 0.00 0.01 0.01 92 1012.3
20260904123052 50 0 0.0 0.0 0.01 0.01 0.01 92 1012.3
20260904121551 50 0 0.0 0.0 0.01 0.01 0.01 92 1012.2
20260904120045 50 0 0.0 0.0 0.01 0.01 0.01 92 1012.1
20260904114543 50 0 0.0 0.0 0.01 0.01 0.01 92 1012.1
20260904113055 50 0 0.0 0.0 0.00 0.00 0.00 92 1012.0
20260904111550 50 0 0.0 0.0 0.00 0.00 0.00 92 1012.0
20260904110046 50 0 0.0 0.0 0.00 0.00 0.00 92 1011.9
20260904104552 50 0 0.0 0.0 0.00 0.00 0.00 91 1011.9
20260904103050 50 0 0.0 0.0 0.00 0.00 0.00 91 1011.9
20260904101546 50 0 0.0 0.0 0.00 0.00 0.00 91 1011.8
20260904100042 50 0 0.0 0.0 0.00 0.00 0.00 91 1011.8
20260904094543 49 0 0.0 0.0 0.00 0.00 0.00 91 1011.8